Retour au catalogue

DIAPASON

D1-A

ActifScienceUNKNOWN
NORAD 2016·PAYLOAD·🇫🇷 France

Lancé Feb 17, 1966 depuis Hammaguir Space Track Range

Loading…

Prochains Passages (prochaines 24 heures)

TLE

FraisSource: Space-Track

Époque: Sep 14, 2026, 10:00 UTC

1 02016U 66013A   26257.41685821  .00001209  00000-0  33697-3 0  9995
2 02016  34.0949 307.4072 1156291 230.9147 118.2944 12.66693476751769

Suivez DIAPASON en temps réel avec AllMySat

Download on the App Store